Location: Vlissingen
(51.4500°N, 3.5830°E)
Time: 07:16:30
(UTC+01:00)

N. Korean satellite - Visible Passes

Search period start: 30 November 2021 00:00
Search period end: 10 December 2021 00:00
Orbit: 447 x 495 km, 97.3° (Epoch: 29 November)

Date Brightness Start Highest point End Pass type
(mag) Time Alt. Az. Time Alt. Az. Time Alt. Az.
30 Nov 6.4 06:10:41 10° NNE 06:14:06 81° ESE 06:17:30 10° S visible
30 Nov 8.4 07:45:57 10° NW 07:46:45 11° WNW 07:47:33 10° WNW visible
30 Nov 10.0 18:25:09 10° WSW 18:26:33 12° W 18:27:56 10° WNW visible
01 Dec 8.0 05:42:22 10° NNE 05:45:34 36° E 05:48:42 10° SSE visible
01 Dec 7.8 07:16:02 10° NNW 07:18:34 19° WNW 07:21:03 10° WSW visible
01 Dec 9.3 17:54:56 10° SSW 17:57:49 23° W 18:00:41 10° NW visible
02 Dec 9.3 05:14:29 10° NE 05:16:53 18° E 05:19:16 10° SE visible
02 Dec 6.9 06:47:04 10° N 06:50:15 37° WNW 06:53:23 10° SW visible
02 Dec 7.8 17:25:45 10° S 17:29:11 46° W 17:32:36 10° NNW visible
03 Dec 6.2 06:18:24 10° NNE 06:21:49 82° WNW 06:25:11 10° SSW visible
04 Dec 7.5 05:49:58 10° NNE 05:53:16 44° E 05:56:31 10° S visible
04 Dec 8.0 07:23:57 10° NNW 07:26:10 16° WNW 07:28:22 10° WSW visible
04 Dec 9.6 18:02:58 10° SW 18:05:32 19° W 18:08:07 10° NW visible
05 Dec 9.0 05:21:54 10° NE 05:24:35 21° E 05:27:15 10° SE visible
05 Dec 7.1 06:54:49 10° N 06:57:51 30° WNW 07:00:51 10° SW visible
05 Dec 8.2 17:33:33 10° SSW 17:36:51 37° W 17:40:08 10° NNW visible
06 Dec 9.9 04:54:55 10° ENE 04:55:48 11° E 04:56:39 10° ESE visible
06 Dec 6.3 06:26:02 10° N 06:29:25 65° WNW 06:32:46 10° SSW visible
07 Dec 7.0 05:57:31 10° NNE 06:00:52 55° E 06:04:11 10° S visible
07 Dec 8.2 07:31:51 10° NNW 07:33:40 14° WNW 07:35:30 10° W visible
07 Dec 9.7 18:11:00 10° SW 18:13:11 16° W 18:15:23 10° NW visible
08 Dec 8.6 05:29:18 10° NE 05:32:11 26° E 05:35:05 10° SSE visible
08 Dec 7.4 07:02:29 10° N 07:05:22 26° WNW 07:08:13 10° SW visible
08 Dec 8.6 17:41:19 10° SSW 17:44:27 31° W 17:47:33 10° NNW visible
09 Dec 9.7 05:01:44 10° ENE 05:03:24 13° E 05:05:03 10° ESE visible
09 Dec 6.4 06:33:36 10° N 06:36:56 52° WNW 06:40:14 10° SSW visible
09 Dec 6.9 17:12:20 10° S 17:15:47 67° WSW 17:19:14 10° NNW visible
